BSAT-3B

导读

BSAT-3b是由日本广播卫星公司B-SAT运营的广播卫星,于当地时间2010年10月28日发射入轨,定位于东经110度地球静止轨道。作为BSAT系列卫星的一员,它主要承担日本本土BS数字广播电视信号传输服务,为日本民众提供稳定的高清电视广播覆盖,替代老旧卫星并增强广播服务可靠性,设计寿命满足长期商用运营需求,是日本地面广播卫星传输网络的重要组成部分。

基本信息
目录编号:
37207
目录名称:
BSAT-3B
国际标识:
2010-056B
轨道中心:
EARTH
卫星名称:
BSAT-3B
卫星全名:
--
卫星状态:
在轨 (已飞行5715 天)
发射日期:
2010-10-28 UTC
国别 :
日本 (JP)
星等 :
--
轨道信息
数据来源 国际轨道数据 AOE轨道数据
星历时间 2026-06-20T17:55:50+0800
1天前
查看轨道信息
2026-06-21T04:00:00+0800
17小时前
查看轨道信息
半长轴 42164.7km 42164.336km
偏心率 0.0001685 0.0001644
轨道倾角 0.055° 0.054°
近地点辐角 298.805° 303.888°
升交点赤经 233.230° 232.984°
平近点角 355.384° 142.002°
近地点 35779.458km 35779.267km
远地点 35793.668km 35793.131km
周期 1436.095分钟 1436.077分钟
每日圈数 1.002719 1.002732
详细信息
使用方式:
暂无
2D轨道图
3D轨道图
轨道高度分析图
轨道倾角分析图
轨道综合分析图
查看轨道综合分析图